Location: Hope
(40.9110°N, 74.9680°W)
Time: 09:34:27
(UTC-04:00)

N. Korean satellite - Visible Passes

Search period start: 22 September 2018 00:00
Search period end: 02 October 2018 00:00
Orbit: 458 x 511 km, 97.2° (Epoch: 21 September)

Date Brightness Start Highest point End Pass type
(mag) Time Alt. Az. Time Alt. Az. Time Alt. Az.
23 Sep 10.1 19:43:42 10° WSW 19:45:14 12° W 19:46:47 10° WNW visible
24 Sep 9.4 19:17:47 10° SSW 19:20:42 24° W 19:23:41 10° NW visible
26 Sep 10.3 06:21:10 10° ENE 06:23:01 13° E 06:24:51 10° ESE visible
27 Sep 10.0 19:39:19 10° SW 19:41:15 14° W 19:43:11 10° WNW visible
28 Sep 9.1 19:13:39 10° SSW 19:16:43 27° W 19:19:52 10° NW visible
30 Sep 10.5 06:17:34 10° ENE 06:19:02 12° E 06:20:29 10° ESE visible
01 Oct 9.9 19:35:00 10° SW 19:37:13 16° W 19:39:30 10° NW visible
